Location: Houston
(29.7631°N, 95.3631°W)
Time: 05:07:23
(UTC-06:00)

DX 1 - Pass Details

Date: 14 November 2019
Orbit: 619 x 631 km, 98.4° (Epoch: 11 December)

Event Time Altitude Azimuth Distance (km) Brightness Sun altitude
Rises 17:56:30 0° 353° (N) 2,895 ? -7.0°
Reaches altitude 10° 17:59:10 10° 336° (NNW) 1,986 ? -7.6°
Maximum altitude 18:02:14 19° 290° (WNW) 1,467 ? -8.2°
Drops below altitude 10° 18:05:18 10° 244° (WSW) 1,981 ? -8.9°
Sets 18:07:59 0° 227° (SW) 2,885 ? -9.4°
